Location: Diebersbach
(48.5163°N, 8.0558°E)
Time: 01:38:34
(UTC+00:00)

Cosmos 1825 - Pass Details

Date: 31 October 2021
Orbit: 501 x 504 km, 82.5° (Epoch: 01 December)

Event Time Altitude Azimuth Distance (km) Brightness Sun altitude
Rises 17:17:02 0° 355° (N) 2,611 5.7 -11.6°
Reaches altitude 10° 17:19:14 10° 2° (N) 1,722 4.7 -12.0°
Maximum altitude 17:22:52 46° 76° (ENE) 690 2.4 -12.6°
Drops below altitude 10° 17:26:29 10° 151° (SSE) 1,710 4.6 -13.2°
Sets 17:28:39 0° 157° (SSE) 2,590 5.6 -13.5°
